[[{"header":{"parameterUnit":"m.s-1","parameterCategory":1,"la1":30.2991,"la2":30.254,"lo1":-89.0895,"lo2":-89.0444,"dy":0.0017,"dx":0.0017,"nx":28,"ny":28,"refTime":"2024-02-14T09:00:00:Z","depth":0,"parameterNumber":2,"parameterNumberName":"U-component_of_WINDS"},"data":[0,0,0,0,0,0,0,0,0,0,0,0,0,0,0,0,0,0,0,0,0,0,0,0,0,0,0,0,0,0,0,0,0,0,0,0,0,0,0,0,0,0,0,0,0,0,0,0,0,0,0,0,0,0,0,0,0,0,0.3622,0.3622,0,0.3666,0.3667,0.3667,0.3669,0.3669,0.3668,0.3668,0.3713,0.3715,0.3716,0,0,0,0,0,0,0,0,0,0,0,0,0,0.354,0.3541,0.3622,0.3622,0.3623,0.3666,0.3667,0.3667,0.3669,0.3669,0.3668,0.3667,0.3712,0.3714,0.3716,0,0,0,0,0,0,0,0,0,0,0,0,0,0.3579,0.3542,0.3622,0.3629,0.363,0.3666,0.3667,0.3667,0.3669,0.3669,0.3668,0.3667,0.3712,0.3714,0.3717,0.3748,0,0,0.3724,0.3726,0,0,0,0,0,0,0,0,0.3577,0.3582,0.3627,0.3629,0.363,0.3661,0.3654,0.3694,0.367,0.3654,0.3668,0.3667,0.3696,0.37,0.371,0.375,0.3752,0.3725,0.3726,0.3727,0.3728,0,0,0,0,0,0,0,0.3574,0.358,0.3639,0.3628,0.363,0.363,0.3635,0.3662,0.3679,0.3656,0.3656,0.3661,0.3697,0.3708,0.3711,0.3753,0.3725,0.3727,0.3728,0.3729,0.3822,0.3823,0,0,0,0,0,0,0.357,0.3578,0.3638,0.3641,0.3601,0.3633,0.3638,0.3652,0.3679,0.3682,0.3662,0.3661,0.3704,0.3708,0.3713,0.3752,0.3727,0.373,0.3731,0.3822,0.3823,0.3824,0,0,0,0,0,0,0.3568,0.3575,0.3636,0.3609,0.3617,0.3635,0.3651,0.3653,0.3664,0.3684,0.3687,0.367,0.3703,0.3709,0.374,0.3754,0.3731,0.3733,0.382,0.3822,0.3823,0.383,0,0,0,0,0,0,0.3565,0.3574,0.3586,0.3609,0.3619,0.3662,0.3652,0.3655,0.3668,0.3668,0.3692,0.3695,0.3703,0.3736,0.3742,0.3757,0.3735,0.3819,0.3821,0.3823,0.3829,0.3832,0.3834,0,0,0,0,0,0.3563,0.3586,0.3587,0.3594,0.3634,0.3663,0.3668,0.3677,0.367,0.3682,0.3695,0.3694,0.3751,0.3739,0.3746,0.3762,0.3818,0.3821,0.3823,0.3828,0.3831,0.3834,0,0,0,0,0,0,0.3563,0.3589,0.359,0.3622,0.364,0.3663,0.3678,0.368,0.3701,0.3699,0.371,0.3715,0.3745,0.3757,0.3742,0.3794,0.3784,0.3788,0.3786,0.3789,0.3792,0.3788,0.3737,0,0,0,0,0,0.3567,0.3589,0.361,0.3636,0.3645,0.366,0.3673,0.3679,0.3698,0.3706,0.3721,0.3739,0.3762,0.3776,0.3798,0.3831,0.3837,0.3845,0.3848,0.385,0.3853,0.3873,0.3877,0.3831,0.3831,0.3831,0,0,0.3576,0.3592,0.3605,0.3637,0.3651,0.3674,0.3667,0.369,0.3707,0.3709,0.3739,0.3751,0.3773,0.3805,0.382,0.3815,0.3867,0.3853,0.3854,0.3856,0.3875,0.388,0.3884,0.3832,0.3832,0.3832,0,0,0.3602,0.3616,0.364,0.3655,0.3678,0.3688,0.3694,0.3717,0.3725,0.3755,0.3758,0.3778,0.3816,0.3832,0.3845,0.3879,0.3879,0.3886,0.39,0.3918,0.3922,0.3925,0.3938,0.3942,0.3889,0.3889,0.3889,0,0.3609,0.3642,0.3652,0.3676,0.369,0.3694,0.3718,0.3733,0.3761,0.3771,0.3766,0.3814,0.3829,0.3866,0.3874,0.3885,0.3892,0.3883,0.3921,0.3924,0.3927,0.394,0.3944,0.3889,0.3889,0.3889,0.3889,0,0.365,0.3674,0.369,0.3718,0.3734,0.3758,0.3772,0.3788,0.3792,0.3803,0.3834,0.3853,0.3878,0.3888,0.3892,0.3925,0.3922,0.3919,0.3908,0.3932,0.3944,0.3949,0.389,0.389,0.389,0.3889,0,0,0.3677,0.3711,0.3717,0.373,0.3757,0.3775,0.38,0.3825,0.3838,0.3858,0.388,0.3913,0.391,0.3925,0.3931,0.3948,0.3975,0.3943,0.3944,0.3948,0.4013,0.4016,0.4021,0.3976,0.3977,0.3977,0.4012,0,0.3706,0.375,0.3761,0.3798,0.382,0.3825,0.3847,0.3866,0.3877,0.3898,0.391,0.3934,0.3928,0.3937,0.3954,0.3968,0.3988,0.3966,0.3996,0.3997,0.399,0.4027,0.4029,0.406,0.4016,0.4017,0.4018,0,0.3746,0.3767,0.3807,0.3832,0.3842,0.3861,0.3886,0.3905,0.3927,0.3934,0.3952,0.3957,0.3984,0.3973,0.401,0.3995,0.4008,0.4017,0.4018,0.4021,0.4008,0.4031,0.407,0.4075,0.4025,0.4024,0.4024,0,0.3762,0.3801,0.383,0.3841,0.387,0.3884,0.3897,0.3918,0.3933,0.3955,0.3965,0.399,0.4003,0.4023,0.4035,0.4026,0.4072,0.4061,0.4079,0.4078,0.4087,0.4087,0.413,0.4096,0.4096,0.4096,0.4096,0,0.3793,0.3817,0.3838,0.3856,0.3883,0.3896,0.3923,0.3936,0.3955,0.3976,0.3982,0.4002,0.4016,0.4038,0.4048,0.4078,0.4084,0.4091,0.4093,0.409,0.409,0.4099,0.4097,0.4097,0.4097,0.4097,0.4097,0,0.3815,0.3829,0.3862,0.3887,0.3894,0.3914,0.3936,0.3954,0.3966,0.3992,0.3999,0.4018,0.4045,0.4059,0.4092,0.4099,0.4132,0.4133,0.4125,0.4126,0.4142,0.414,0.4192,0.42,0.4162,0.4162,0.4162,0,0.3834,0.3853,0.3881,0.3895,0.3908,0.3932,0.3947,0.3961,0.3977,0.4004,0.4019,0.4046,0.4068,0.411,0.4127,0.4153,0.4155,0.4171,0.4158,0.4155,0.4155,0.4154,0.4156,0.4173,0.4173,0.4174,0.4174,0,0.3866,0.3872,0.3895,0.392,0.3939,0.396,0.398,0.3992,0.4009,0.4027,0.4054,0.4071,0.4106,0.4132,0.416,0.4173,0.4177,0.4178,0.4183,0.418,0.4175,0.4178,0.4131,0.4177,0.4176,0.4176,0.4176,0.4176,0.3887,0.3904,0.3927,0.3952,0.3969,0.3988,0.4007,0.4022,0.4045,0.4074,0.408,0.4109,0.4132,0.4169,0.4184,0.4207,0.4204,0.4211,0.4213,0.4215,0.4216,0.4171,0.4212,0.4212,0.4212,0.4212,0.4212,0,0.3919,0.3934,0.3957,0.3986,0.4006,0.4008,0.4032,0.4048,0.4074,0.4095,0.4117,0.4149,0.4175,0.4195,0.4222,0.4237,0.4239,0.4244,0.4243,0.4246,0.4217,0.421,0.4241,0.4241,0.4241,0.4241,0.4241,0.4241,0.3938,0.3968,0.3978,0.4017,0.4032,0.406,0.4073,0.4092,0.4109,0.4144,0.4166,0.4179,0.42,0.4229,0.4254,0.4259,0.4269,0.4273,0.4278,0.4251,0.4248,0.4245,0.4238,0.4275,0.4275,0.4305,0.4306,0.4306]},{"header":{"parameterUnit":"m.s-1","parameterCategory":1,"la1":30.2991,"la2":30.254,"lo1":-89.0895,"lo2":-89.0444,"dy":0.0017,"dx":0.0017,"nx":28,"ny":28,"refTime":"2024-02-14T09:00:00:Z","depth":0,"parameterNumber":3,"parameterNumberName":"V-component_of_WINDS"},"data":[0,0,0,0,0,0,0,0,0,0,0,0,0,0,0,0,0,0,0,0,0,0,0,0,0,0,0,0,0,0,0,0,0,0,0,0,0,0,0,0,0,0,0,0,0,0,0,0,0,0,0,0,0,0,0,0,0,0,-1.089,-1.089,0,-1.0943,-1.0944,-1.0944,-1.0948,-1.0947,-1.0947,-1.0946,-1.1004,-1.1006,-1.1008,0,0,0,0,0,0,0,0,0,0,0,0,0,-1.0795,-1.0796,-1.089,-1.089,-1.0891,-1.0943,-1.0944,-1.0945,-1.0948,-1.0947,-1.0946,-1.0946,-1.1003,-1.1006,-1.1008,0,0,0,0,0,0,0,0,0,0,0,0,0,-1.0841,-1.0797,-1.089,-1.0899,-1.09,-1.0943,-1.0944,-1.0945,-1.0948,-1.0947,-1.0946,-1.0945,-1.1002,-1.1005,-1.1009,-1.1047,0,0,-1.1018,-1.102,0,0,0,0,0,0,0,0,-1.0838,-1.0844,-1.0897,-1.0898,-1.09,-1.0938,-1.0932,-1.0979,-1.0948,-1.093,-1.0946,-1.0945,-1.0983,-1.0988,-1.1,-1.1049,-1.1052,-1.1019,-1.102,-1.1022,-1.1023,0,0,0,0,0,0,0,-1.0835,-1.0842,-1.0911,-1.0898,-1.09,-1.0902,-1.0907,-1.0941,-1.0961,-1.0932,-1.0932,-1.0938,-1.0984,-1.0997,-1.1001,-1.1053,-1.1018,-1.1021,-1.1023,-1.1024,-1.1138,-1.1139,0,0,0,0,0,0,-1.083,-1.0839,-1.0909,-1.0913,-1.0866,-1.0904,-1.091,-1.0927,-1.0961,-1.0965,-1.0939,-1.0938,-1.0992,-1.0997,-1.1003,-1.1051,-1.1022,-1.1025,-1.1027,-1.1137,-1.1138,-1.1139,0,0,0,0,0,0,-1.0828,-1.0836,-1.0907,-1.0876,-1.0885,-1.0907,-1.0925,-1.0928,-1.0941,-1.0966,-1.097,-1.0948,-1.0991,-1.0999,-1.1036,-1.1053,-1.1026,-1.1029,-1.1136,-1.1137,-1.1139,-1.1145,0,0,0,0,0,0,-1.0825,-1.0835,-1.0849,-1.0876,-1.0887,-1.0938,-1.0926,-1.093,-1.0946,-1.0946,-1.0976,-1.098,-1.0991,-1.1031,-1.1039,-1.1057,-1.1032,-1.1134,-1.1136,-1.1138,-1.1144,-1.1147,-1.115,0,0,0,0,0,-1.0821,-1.0849,-1.0849,-1.0858,-1.0904,-1.0939,-1.0945,-1.0956,-1.0948,-1.0962,-1.0978,-1.0979,-1.105,-1.1035,-1.1044,-1.1063,-1.1133,-1.1136,-1.1138,-1.1142,-1.1146,-1.115,0,0,0,0,0,0,-1.0823,-1.0853,-1.0853,-1.089,-1.0912,-1.0939,-1.0958,-1.096,-1.0985,-1.0983,-1.0997,-1.1004,-1.1041,-1.1056,-1.1039,-1.1102,-1.1091,-1.1095,-1.1091,-1.1095,-1.1098,-1.1094,-1.1034,0,0,0,0,0,-1.0828,-1.0852,-1.0877,-1.0907,-1.0918,-1.0936,-1.0951,-1.0958,-1.0981,-1.0991,-1.101,-1.1033,-1.1061,-1.1079,-1.1106,-1.1146,-1.1154,-1.1164,-1.1167,-1.1169,-1.1173,-1.1197,-1.1202,-1.1148,-1.1148,-1.1148,0,0,-1.0838,-1.0857,-1.0871,-1.0908,-1.0925,-1.0952,-1.0944,-1.0971,-1.0991,-1.0995,-1.1031,-1.1046,-1.1074,-1.1113,-1.1131,-1.1126,-1.119,-1.1172,-1.1174,-1.1177,-1.12,-1.1205,-1.1209,-1.1149,-1.1149,-1.1149,0,0,-1.0869,-1.0885,-1.0913,-1.093,-1.0957,-1.0969,-1.0976,-1.1003,-1.1013,-1.1049,-1.1053,-1.1078,-1.1125,-1.1144,-1.116,-1.1201,-1.1203,-1.1209,-1.1225,-1.1248,-1.1253,-1.1257,-1.1272,-1.1277,-1.1213,-1.1213,-1.1213,0,-1.0878,-1.0916,-1.0927,-1.0955,-1.0971,-1.0976,-1.1004,-1.1022,-1.1056,-1.1068,-1.1062,-1.1121,-1.114,-1.1185,-1.1195,-1.1207,-1.1217,-1.1206,-1.1251,-1.1255,-1.1259,-1.1273,-1.1279,-1.1214,-1.1214,-1.1214,-1.1213,0,-1.0927,-1.0953,-1.0972,-1.1004,-1.1024,-1.1052,-1.1068,-1.1086,-1.1092,-1.1105,-1.1143,-1.1166,-1.1198,-1.1209,-1.1215,-1.1255,-1.1251,-1.1248,-1.1237,-1.1264,-1.1278,-1.1284,-1.1215,-1.1214,-1.1214,-1.1214,0,0,-1.0959,-1.0998,-1.1004,-1.102,-1.105,-1.1071,-1.1101,-1.1131,-1.1147,-1.1171,-1.1196,-1.1237,-1.1234,-1.1253,-1.1261,-1.1281,-1.1313,-1.1276,-1.1277,-1.1282,-1.136,-1.1362,-1.1368,-1.1315,-1.1316,-1.1317,-1.1357,0,-1.0994,-1.1044,-1.1056,-1.11,-1.1125,-1.1131,-1.1157,-1.1179,-1.1192,-1.1217,-1.1233,-1.1261,-1.1255,-1.1267,-1.1287,-1.1305,-1.1329,-1.1302,-1.134,-1.1341,-1.1332,-1.1375,-1.1377,-1.1414,-1.1363,-1.1364,-1.1364,0,-1.1041,-1.1065,-1.1112,-1.1139,-1.1151,-1.1173,-1.1203,-1.1226,-1.1252,-1.1261,-1.1282,-1.1288,-1.1321,-1.1308,-1.1354,-1.1335,-1.1352,-1.1363,-1.1365,-1.1369,-1.1354,-1.138,-1.1427,-1.1432,-1.1373,-1.1372,-1.1372,0,-1.1061,-1.1105,-1.1139,-1.1152,-1.1185,-1.1201,-1.1216,-1.1241,-1.1259,-1.1285,-1.1297,-1.1327,-1.1344,-1.1368,-1.1383,-1.1373,-1.1428,-1.1416,-1.1437,-1.1437,-1.1448,-1.1447,-1.1498,-1.1459,-1.1459,-1.1458,-1.1458,0,-1.1098,-1.1126,-1.1148,-1.1169,-1.1202,-1.1215,-1.1248,-1.1263,-1.1285,-1.131,-1.1317,-1.1341,-1.136,-1.1386,-1.1399,-1.1435,-1.1443,-1.1452,-1.1455,-1.1451,-1.145,-1.1462,-1.146,-1.146,-1.146,-1.1459,-1.1459,0,-1.1125,-1.1141,-1.1178,-1.1207,-1.1215,-1.1237,-1.1263,-1.1284,-1.1298,-1.133,-1.1338,-1.1361,-1.1393,-1.141,-1.1451,-1.1459,-1.15,-1.1502,-1.1491,-1.1492,-1.1512,-1.151,-1.1572,-1.1581,-1.1536,-1.1536,-1.1536,0,-1.1148,-1.117,-1.1201,-1.1217,-1.1232,-1.1259,-1.1278,-1.1293,-1.1312,-1.1344,-1.1362,-1.1394,-1.142,-1.1471,-1.1492,-1.1524,-1.1526,-1.1546,-1.1531,-1.1527,-1.1527,-1.1526,-1.1528,-1.1548,-1.1549,-1.1549,-1.1549,0,-1.1187,-1.1194,-1.1219,-1.1248,-1.127,-1.1293,-1.1317,-1.133,-1.135,-1.1371,-1.1403,-1.1424,-1.1465,-1.1497,-1.1531,-1.1548,-1.1552,-1.1554,-1.1561,-1.1557,-1.155,-1.1555,-1.1498,-1.1552,-1.1552,-1.1552,-1.1552,-1.1552,-1.1213,-1.1233,-1.1258,-1.1287,-1.1306,-1.1328,-1.1349,-1.1366,-1.1393,-1.1427,-1.1435,-1.1469,-1.1497,-1.1542,-1.156,-1.1588,-1.1584,-1.1593,-1.1596,-1.1598,-1.1599,-1.1545,-1.1594,-1.1594,-1.1594,-1.1594,-1.1594,0,-1.1253,-1.1269,-1.1295,-1.1328,-1.1351,-1.1352,-1.1379,-1.1398,-1.1428,-1.1453,-1.1479,-1.1517,-1.1548,-1.1572,-1.1605,-1.1623,-1.1626,-1.1631,-1.163,-1.1634,-1.16,-1.1591,-1.1628,-1.1628,-1.1628,-1.1628,-1.1628,-1.1628,-1.1276,-1.131,-1.132,-1.1365,-1.1382,-1.1414,-1.143,-1.1451,-1.147,-1.1512,-1.1538,-1.1553,-1.1578,-1.1613,-1.1643,-1.1649,-1.1661,-1.1666,-1.1673,-1.164,-1.1637,-1.1633,-1.1625,-1.1669,-1.1669,-1.1705,-1.1705,-1.1706]}]]